"Pseudo-MPEC" for P10Mi1o

Created 2019 Feb 20 14:18:05 UT using Find_Orb

Click here for an explanation of pseudo-MPECs

 
 Astrometry: 
     P10Mi1o  C2019 02 09'4NAstrometryITrtP:nkv=#/Bredacted;v,GGy(m5!`x`h2hk@F51
     P10Mi1o  C2019 02 09afJUclickZh0+W6_fY[M\Lb*b=jhere:#2F$G-Dq$:4Et%_`^@gWF51
     P10Mi1o  C2019 02 09:ZaVwfor+pUvUvCb@oXx/Nf.km=)explanationh*!ED[`3kJBcGF51

Station data:
(F51) Pan-STARRS 1, Haleakala  (N20.707235 W156.255910)  US/Hawaii.
   Observers N. Primak, A. Schultz, S. Watters, J. Thiel, T. Goggia. Measurer
   PS1 Science Consortium. 1.8-m Ritchey-Chrétien + CCD.

Orbital elements:  P10Mi1o
   Perihelion 2019 Jan 24.952342 +/- 32.9 TT = 22:51:22 (JD 2458508.452342)
Epoch 2019 Feb  9.0 TT = JDT 2458523.5   Earth MOID: 0.0235   Ma: 0.0988
M  11.98683532 +/- 21               (J2000 ecliptic)          AutoNEOCP
n   0.79659142 +/- 0.408            Peri.  359.67134 +/- 70
a   1.15251246 +/- 0.393            Node   123.88440 +/- 56
e   0.1254235 +/- 0.247             Incl.    3.36497 +/- 10
P   1.24/451.92d           H 27.1   G  0.15   U 12.1  SR
q 1.00796026 +/- 0.208    Q 1.29706466 +/- 40.3
From 3 observations 2019 Feb. 9 (38.9 min); mean residual 0".18
Residuals in arcseconds: 
190209 F51  .10+  .15+    190209 F51  .20-  .31-    190209 F51  .10+  .15+    

Ephemerides (geocentric):
Date (UTC) HH   RA              Dec         delta   r     elong  mag " sig PA
---- -- -- --  -------------   -----------  ------ ------ -----  --- ---- ---
2019 02 20 14  10 14 33.214   +53 40 04.37  .04279 1.0206 137.3 22.0  38d  45
2019 02 20 15  10 14 52.063   +53 39 50.90  .04284 1.0206 137.3 22.0  38d  45
2019 02 20 16  10 15 10.867   +53 39 37.13  .04289 1.0207 137.3 22.0  38d  45
2019 02 20 17  10 15 29.626   +53 39 23.05  .04293 1.0207 137.3 22.0  38d  45
2019 02 20 18  10 15 48.341   +53 39 08.68  .04298 1.0207 137.3 22.0  38d  45
2019 02 20 19  10 16 07.010   +53 38 54.02  .04303 1.0208 137.3 22.0  38d  45
2019 02 20 20  10 16 25.635   +53 38 39.06  .04307 1.0208 137.2 22.0  38d  45
2019 02 20 21  10 16 44.216   +53 38 23.81  .04312 1.0209 137.2 22.0  38d  45
2019 02 20 22  10 17 02.751   +53 38 08.26  .04317 1.0209 137.2 22.0  38d  45
2019 02 20 23  10 17 21.242   +53 37 52.43  .04321 1.0209 137.2 22.0  38d  45
2019 02 21 00  10 17 39.688   +53 37 36.31  .04326 1.0210 137.2 22.0  38d  45
2019 02 21 01  10 17 58.090   +53 37 19.90  .04331 1.0210 137.2 22.0  38d  45
2019 02 21 02  10 18 16.447   +53 37 03.21  .04335 1.0210 137.2 22.0  38d  45
2019 02 21 03  10 18 34.759   +53 36 46.23  .04340 1.0211 137.2 22.0  38d  45
2019 02 21 04  10 18 53.027   +53 36 28.97  .04345 1.0211 137.2 22.0  38d  45
2019 02 21 05  10 19 11.250   +53 36 11.43  .04349 1.0212 137.2 22.0  39d  45
2019 02 21 06  10 19 29.428   +53 35 53.61  .04354 1.0212 137.1 22.0  39d  45
2019 02 21 07  10 19 47.562   +53 35 35.51  .04359 1.0212 137.1 22.0  39d  45
2019 02 21 08  10 20 05.652   +53 35 17.14  .04364 1.0213 137.1 22.0  39d  45
2019 02 21 09  10 20 23.697   +53 34 58.48  .04368 1.0213 137.1 22.0  39d  45
2019 02 21 10  10 20 41.697   +53 34 39.56  .04373 1.0214 137.1 22.0  39d  45
2019 02 21 11  10 20 59.653   +53 34 20.36  .04378 1.0214 137.1 22.0  39d  45
2019 02 21 12  10 21 17.565   +53 34 00.89  .04382 1.0214 137.1 22.0  39d  45
2019 02 21 13  10 21 35.432   +53 33 41.15  .04387 1.0215 137.1 22.0  39d  45
2019 02 21 14  10 21 53.254   +53 33 21.15  .04392 1.0215 137.1 22.0  39d  45
2019 02 21 15  10 22 11.033   +53 33 00.87  .04397 1.0216 137.0 22.0  39d  45
2019 02 21 16  10 22 28.767   +53 32 40.33  .04401 1.0216 137.0 22.0  39d  45
2019 02 21 17  10 22 46.457   +53 32 19.53  .04406 1.0216 137.0 22.0  39d  45
2019 02 21 18  10 23 04.102   +53 31 58.46  .04411 1.0217 137.0 22.0  39d  45
2019 02 21 19  10 23 21.704   +53 31 37.13  .04416 1.0217 137.0 22.0  39d  45
2019 02 21 20  10 23 39.261   +53 31 15.54  .04420 1.0218 137.0 22.0  39d  45
2019 02 21 21  10 23 56.774   +53 30 53.69  .04425 1.0218 137.0 22.0  39d  45
2019 02 21 22  10 24 14.243   +53 30 31.58  .04430 1.0218 137.0 22.0  39d  45
2019 02 21 23  10 24 31.668   +53 30 09.22  .04435 1.0219 137.0 22.0  39d  45
2019 02 22 00  10 24 49.048   +53 29 46.60  .04440 1.0219 137.0 22.0  39d  45
2019 02 22 01  10 25 06.385   +53 29 23.72  .04444 1.0220 137.0 22.0  39d  45
2019 02 22 02  10 25 23.678   +53 29 00.60  .04449 1.0220 136.9 22.0  39d  45
2019 02 22 03  10 25 40.927   +53 28 37.22  .04454 1.0220 136.9 22.1  39d  45
2019 02 22 04  10 25 58.132   +53 28 13.59  .04459 1.0221 136.9 22.1  39d  45
2019 02 22 05  10 26 15.293   +53 27 49.72  .04463 1.0221 136.9 22.1  39d  45
2019 02 22 06  10 26 32.410   +53 27 25.59  .04468 1.0222 136.9 22.1  39d  45
2019 02 22 07  10 26 49.484   +53 27 01.22  .04473 1.0222 136.9 22.1  39d  45
2019 02 22 08  10 27 06.514   +53 26 36.61  .04478 1.0222 136.9 22.1  39d  45
2019 02 22 09  10 27 23.500   +53 26 11.75  .04483 1.0223 136.9 22.1  39d  45
2019 02 22 10  10 27 40.442   +53 25 46.65  .04487 1.0223 136.9 22.1  39d  45
2019 02 22 11  10 27 57.341   +53 25 21.31  .04492 1.0224 136.9 22.1  39d  45
2019 02 22 12  10 28 14.196   +53 24 55.72  .04497 1.0224 136.9 22.1  39d  45
2019 02 22 13  10 28 31.008   +53 24 29.90  .04502 1.0224 136.8 22.1  39d  45